Time,TemperatureF,DewpointF,PressureIn,WindDirection,WindDirectionDegrees,WindSpeedMPH,WindSpeedGustMPH,Humidity,HourlyPrecipIn,Conditions,Clouds,dailyrainin,SolarRadiationWatts/m^2,SoftwareType,DateUTC
2013-03-09 00:00:00,41.2,34.9,30.24,North,352,0.0,0.0,78,0.00,,,0.00,0,Wunderground v.1.15,2013-03-09 05:00:00,
2013-03-09 00:03:00,41.2,34.2,30.24,North,352,0.0,0.0,76,0.00,,,0.00,0,Wunderground v.1.15,2013-03-09 05:03:00,
2013-03-09 00:08:00,41.1,33.4,30.24,North,352,0.0,0.0,74,0.00,,,0.00,0,Wunderground v.1.15,2013-03-09 05:08:00,
2013-03-09 00:13:00,41.1,32.8,30.24,North,352,0.0,0.0,72,0.00,,,0.00,0,Wunderground v.1.15,2013-03-09 05:13:00,
2013-03-09 00:14:00,41.1,33.1,30.24,North,352,0.0,0.0,73,0.00,,,0.00,0,Wunderground v.1.15,2013-03-09 05:14:00,
2013-03-09 00:20:00,41.2,33.9,30.24,North,352,0.0,0.0,75,0.00,,,0.00,0,Wunderground v.1.15,2013-03-09 05:20:00,
2013-03-09 00:25:00,41.0,34.0,30.24,North,352,0.0,0.0,76,0.00,,,0.00,0,Wunderground v.1.15,2013-03-09 05:25:00,
2013-03-09 00:31:00,40.8,34.1,30.25,North,352,0.0,0.0,77,0.00,,,0.00,0,Wunderground v.1.15,2013-03-09 05:31:00,
2013-03-09 00:36:00,40.6,34.3,30.25,North,352,0.0,0.0,78,0.00,,,0.00,0,Wunderground v.1.15,2013-03-09 05:36:00,
2013-03-09 00:42:00,40.4,34.4,30.25,North,352,0.0,0.0,79,0.00,,,0.00,0,Wunderground v.1.15,2013-03-09 05:42:00,
2013-03-09 00:47:00,40.2,34.2,30.25,North,352,0.0,0.0,79,0.00,,,0.00,0,Wunderground v.1.15,2013-03-09 05:47:00,
2013-03-09 00:52:00,40.0,34.0,30.25,North,352,0.0,0.0,79,0.00,,,0.00,0,Wunderground v.1.15,2013-03-09 05:52:00,
2013-03-09 00:58:00,39.9,34.2,30.25,North,352,0.0,0.0,80,0.00,,,0.00,0,Wunderground v.1.15,2013-03-09 05:58:00,
2013-03-09 01:03:00,39.8,33.8,30.25,North,352,0.0,0.0,79,0.00,,,0.00,0,Wunderground v.1.15,2013-03-09 06:03:00,
2013-03-09 01:09:00,39.8,33.8,30.25,North,352,0.0,0.0,79,0.00,,,0.00,0,Wunderground v.1.15,2013-03-09 06:09:00,
2013-03-09 01:15:00,39.8,33.8,30.25,North,352,0.0,0.0,79,0.00,,,0.00,0,Wunderground v.1.15,2013-03-09 06:15:00,
2013-03-09 01:20:00,39.9,33.6,30.25,North,352,0.0,0.0,78,0.00,,,0.00,0,Wunderground v.1.15,2013-03-09 06:20:00,
2013-03-09 01:26:00,40.1,33.5,30.25,North,352,0.0,0.0,77,0.00,,,0.00,0,Wunderground v.1.15,2013-03-09 06:26:00,
2013-03-09 01:31:00,40.3,33.7,30.25,North,352,0.0,0.0,77,0.00,,,0.00,0,Wunderground v.1.15,2013-03-09 06:31:00,
2013-03-09 01:37:00,40.2,34.2,30.25,North,352,0.0,0.0,79,0.00,,,0.00,0,Wunderground v.1.15,2013-03-09 06:37:00,
2013-03-09 01:43:00,39.9,34.2,30.25,North,352,0.0,0.0,80,0.00,,,0.00,0,Wunderground v.1.15,2013-03-09 06:43:00,
2013-03-09 01:48:00,39.7,34.0,30.26,North,352,0.0,0.0,80,0.00,,,0.00,0,Wunderground v.1.15,2013-03-09 06:48:00,
2013-03-09 01:54:00,39.4,34.1,30.26,North,352,0.0,0.0,81,0.00,,,0.00,0,Wunderground v.1.15,2013-03-09 06:54:00,
2013-03-09 02:00:00,39.3,33.6,30.25,North,352,0.0,0.0,80,0.00,,,0.00,0,Wunderground v.1.15,2013-03-09 07:00:00,
2013-03-09 02:05:00,39.2,33.2,30.25,North,352,0.0,0.0,79,0.00,,,0.00,0,Wunderground v.1.15,2013-03-09 07:05:00,
2013-03-09 02:11:00,39.3,33.0,30.25,North,352,0.0,0.0,78,0.00,,,0.00,0,Wunderground v.1.15,2013-03-09 07:11:00,
2013-03-09 02:16:00,39.5,33.2,30.25,North,352,0.0,0.0,78,0.00,,,0.00,0,Wunderground v.1.15,2013-03-09 07:16:00,
2013-03-09 02:22:00,39.7,33.4,30.25,North,352,0.0,0.0,78,0.00,,,0.00,0,Wunderground v.1.15,2013-03-09 07:22:00,
2013-03-09 02:28:00,39.9,33.9,30.25,North,352,0.0,0.0,79,0.00,,,0.00,0,Wunderground v.1.15,2013-03-09 07:28:00,
2013-03-09 02:33:00,39.9,33.9,30.25,North,352,0.0,0.0,79,0.00,,,0.00,0,Wunderground v.1.15,2013-03-09 07:33:00,
2013-03-09 02:39:00,40.0,34.0,30.25,North,352,0.0,0.0,79,0.00,,,0.00,0,Wunderground v.1.15,2013-03-09 07:39:00,
2013-03-09 02:45:00,40.0,34.0,30.25,North,352,0.0,0.0,79,0.00,,,0.00,0,Wunderground v.1.15,2013-03-09 07:45:00,
2013-03-09 02:51:00,39.9,33.9,30.25,North,352,0.0,0.0,79,0.00,,,0.00,0,Wunderground v.1.15,2013-03-09 07:51:00,
2013-03-09 02:58:00,40.0,34.0,30.25,North,352,0.0,0.0,79,0.00,,,0.00,0,Wunderground v.1.15,2013-03-09 07:58:00,
2013-03-09 03:03:00,40.3,34.3,30.24,North,352,0.0,0.0,79,0.00,,,0.00,0,Wunderground v.1.15,2013-03-09 08:03:00,
2013-03-09 03:09:00,40.7,34.4,30.24,North,355,0.0,2.0,78,0.00,,,0.00,0,Wunderground v.1.15,2013-03-09 08:09:00,
2013-03-09 03:14:00,41.2,34.5,30.24,North,355,0.0,0.0,77,0.00,,,0.00,0,Wunderground v.1.15,2013-03-09 08:14:00,
2013-03-09 03:20:00,41.6,34.3,30.25,North,355,0.0,0.0,75,0.00,,,0.00,0,Wunderground v.1.15,2013-03-09 08:20:00,
2013-03-09 03:25:00,42.0,34.3,30.25,NNE,27,0.0,2.0,74,0.00,,,0.00,0,Wunderground v.1.15,2013-03-09 08:25:00,
2013-03-09 03:30:00,42.1,34.1,30.25,NNE,27,0.0,0.0,73,0.00,,,0.00,0,Wunderground v.1.15,2013-03-09 08:30:00,
2013-03-09 03:36:00,42.4,34.0,30.25,NNE,27,0.0,1.0,72,0.00,,,0.00,0,Wunderground v.1.15,2013-03-09 08:36:00,
2013-03-09 03:41:00,42.5,33.8,30.25,NNW,337,0.0,1.0,71,0.00,,,0.00,0,Wunderground v.1.15,2013-03-09 08:41:00,
2013-03-09 03:47:00,42.4,33.7,30.24,North,4,0.0,2.0,71,0.00,,,0.00,0,Wunderground v.1.15,2013-03-09 08:47:00,
2013-03-09 03:52:00,42.3,33.6,30.24,North,4,0.0,1.0,71,0.00,,,0.00,0,Wunderground v.1.15,2013-03-09 08:52:00,
2013-03-09 03:58:00,42.1,33.4,30.24,North,9,0.0,1.0,71,0.00,,,0.00,0,Wunderground v.1.15,2013-03-09 08:58:00,
2013-03-09 04:03:00,42.0,33.3,30.24,North,9,0.0,0.0,71,0.00,,,0.00,0,Wunderground v.1.15,2013-03-09 09:03:00,
2013-03-09 04:09:00,41.8,33.1,30.24,NNE,15,1.0,4.0,71,0.00,,,0.00,0,Wunderground v.1.15,2013-03-09 09:09:00,
2013-03-09 04:15:00,41.7,33.0,30.25,NNE,15,1.0,1.0,71,0.00,,,0.00,0,Wunderground v.1.15,2013-03-09 09:15:00,
2013-03-09 04:21:00,41.6,33.2,30.25,NNE,15,1.0,1.0,72,0.00,,,0.00,0,Wunderground v.1.15,2013-03-09 09:21:00,
2013-03-09 04:26:00,41.5,33.1,30.25,NNE,15,0.0,1.0,72,0.00,,,0.00,0,Wunderground v.1.15,2013-03-09 09:26:00,
2013-03-09 04:31:00,41.4,32.7,30.25,NNE,15,0.0,1.0,71,0.00,,,0.00,0,Wunderground v.1.15,2013-03-09 09:31:00,
2013-03-09 04:37:00,41.3,32.6,30.25,NNE,14,0.0,2.0,71,0.00,,,0.00,0,Wunderground v.1.15,2013-03-09 09:37:00,
2013-03-09 04:43:00,41.3,33.0,30.25,NNE,13,0.0,1.0,72,0.00,,,0.00,0,Wunderground v.1.15,2013-03-09 09:43:00,
2013-03-09 04:48:00,41.3,33.0,30.25,North,357,0.0,3.0,72,0.00,,,0.00,0,Wunderground v.1.15,2013-03-09 09:48:00,
2013-03-09 04:54:00,41.2,32.9,30.25,North,7,1.0,2.0,72,0.00,,,0.00,0,Wunderground v.1.15,2013-03-09 09:54:00,
2013-03-09 05:00:00,41.2,32.9,30.26,North,7,0.0,0.0,72,0.00,,,0.00,0,Wunderground v.1.15,2013-03-09 10:00:00,
2013-03-09 05:05:00,41.1,32.8,30.26,North,7,0.0,2.0,72,0.00,,,0.00,0,Wunderground v.1.15,2013-03-09 10:05:00,
2013-03-09 05:11:00,41.0,32.7,30.26,North,7,0.0,0.0,72,0.00,,,0.00,0,Wunderground v.1.15,2013-03-09 10:11:00,
2013-03-09 05:16:00,40.8,32.8,30.26,North,7,0.0,0.0,73,0.00,,,0.00,0,Wunderground v.1.15,2013-03-09 10:16:00,
2013-03-09 05:22:00,40.8,32.8,30.26,North,7,0.0,1.0,73,0.00,,,0.00,0,Wunderground v.1.15,2013-03-09 10:22:00,
2013-03-09 05:28:00,40.7,33.1,30.26,North,7,0.0,1.0,74,0.00,,,0.00,0,Wunderground v.1.15,2013-03-09 10:28:00,
2013-03-09 05:33:00,40.6,33.0,30.27,North,7,0.0,0.0,74,0.00,,,0.00,0,Wunderground v.1.15,2013-03-09 10:33:00,
2013-03-09 05:39:00,40.6,33.0,30.27,North,7,0.0,1.0,74,0.00,,,0.00,0,Wunderground v.1.15,2013-03-09 10:39:00,
2013-03-09 05:44:00,40.6,33.3,30.27,North,7,0.0,0.0,75,0.00,,,0.00,0,Wunderground v.1.15,2013-03-09 10:44:00,
2013-03-09 05:50:00,40.7,33.4,30.26,North,7,0.0,0.0,75,0.00,,,0.00,0,Wunderground v.1.15,2013-03-09 10:50:00,
2013-03-09 05:56:00,40.8,33.2,30.26,North,9,0.0,0.0,74,0.00,,,0.00,0,Wunderground v.1.15,2013-03-09 10:56:00,
2013-03-09 06:02:00,41.0,33.3,30.27,North,9,0.0,1.0,74,0.00,,,0.00,0,Wunderground v.1.15,2013-03-09 11:02:00,
2013-03-09 06:07:00,41.1,33.4,30.27,North,9,0.0,1.0,74,0.00,,,0.00,0,Wunderground v.1.15,2013-03-09 11:07:00,
2013-03-09 06:13:00,41.4,33.4,30.27,NNE,17,1.0,1.0,73,0.00,,,0.00,0,Wunderground v.1.15,2013-03-09 11:13:00,
2013-03-09 06:18:00,41.5,33.5,30.26,NNE,17,0.0,1.0,73,0.00,,,0.00,0,Wunderground v.1.15,2013-03-09 11:18:00,
2013-03-09 06:24:00,41.5,33.8,30.26,NNE,17,0.0,2.0,74,0.00,,,0.00,0,Wunderground v.1.15,2013-03-09 11:24:00,
2013-03-09 06:30:00,41.4,33.4,30.26,NNE,13,1.0,1.0,73,0.00,,,0.00,0,Wunderground v.1.15,2013-03-09 11:30:00,
2013-03-09 06:35:00,41.5,33.5,30.26,North,4,0.0,2.0,73,0.00,,,0.00,0,Wunderground v.1.15,2013-03-09 11:35:00,
2013-03-09 06:40:00,41.4,33.4,30.26,North,4,0.0,1.0,73,0.00,,,0.00,0,Wunderground v.1.15,2013-03-09 11:40:00,
2013-03-09 06:46:00,41.3,33.3,30.27,North,4,0.0,1.0,73,0.00,,,0.00,7,Wunderground v.1.15,2013-03-09 11:46:00,
2013-03-09 06:52:00,41.3,33.3,30.27,North,4,0.0,1.0,73,0.00,,,0.00,9,Wunderground v.1.15,2013-03-09 11:52:00,
2013-03-09 06:58:00,41.2,33.2,30.27,North,4,0.0,4.0,73,0.00,,,0.00,12,Wunderground v.1.15,2013-03-09 11:58:00,
2013-03-09 07:03:00,41.3,33.3,30.27,NNE,17,1.0,2.0,73,0.00,,,0.00,16,Wunderground v.1.15,2013-03-09 12:03:00,
2013-03-09 07:09:00,41.4,33.4,30.27,NNE,17,1.0,2.0,73,0.00,,,0.00,18,Wunderground v.1.15,2013-03-09 12:09:00,
2013-03-09 07:15:00,41.6,33.6,30.28,NNE,15,0.0,2.0,73,0.00,,,0.00,21,Wunderground v.1.15,2013-03-09 12:15:00,
2013-03-09 07:20:00,41.9,33.9,30.28,NNE,15,1.0,1.0,73,0.00,,,0.00,23,Wunderground v.1.15,2013-03-09 12:20:00,
2013-03-09 07:26:00,42.1,33.7,30.28,NNE,15,1.0,2.0,72,0.00,,,0.00,25,Wunderground v.1.15,2013-03-09 12:26:00,
2013-03-09 07:32:00,42.4,33.7,30.29,NNE,12,1.0,3.0,71,0.00,,,0.00,28,Wunderground v.1.15,2013-03-09 12:32:00,
2013-03-09 07:37:00,42.7,33.6,30.29,North,10,1.0,3.0,70,0.00,,,0.00,53,Wunderground v.1.15,2013-03-09 12:37:00,
2013-03-09 07:43:00,43.2,33.7,30.29,North,2,1.0,4.0,69,0.00,,,0.00,120,Wunderground v.1.15,2013-03-09 12:43:00,
2013-03-09 07:48:00,43.7,34.2,30.29,NNE,13,1.0,4.0,69,0.00,,,0.00,42,Wunderground v.1.15,2013-03-09 12:48:00,
2013-03-09 07:54:00,44.1,34.2,30.29,North,3,1.0,2.0,68,0.00,,,0.00,91,Wunderground v.1.15,2013-03-09 12:54:00,
2013-03-09 08:00:00,44.5,34.6,30.29,North,359,1.0,1.0,68,0.00,,,0.00,118,Wunderground v.1.15,2013-03-09 13:00:00,
2013-03-09 08:05:00,45.0,34.7,30.29,North,360,1.0,4.0,67,0.00,,,0.00,250,Wunderground v.1.15,2013-03-09 13:05:00,
2013-03-09 08:11:00,45.6,34.5,30.29,NNE,22,1.0,1.0,65,0.00,,,0.00,271,Wunderground v.1.15,2013-03-09 13:11:00,
2013-03-09 08:16:00,46.2,34.7,30.29,West,279,2.0,6.0,64,0.00,,,0.00,287,Wunderground v.1.15,2013-03-09 13:16:00,
2013-03-09 08:22:00,46.8,34.5,30.29,NNE,15,1.0,4.0,62,0.00,,,0.00,315,Wunderground v.1.15,2013-03-09 13:22:00,
2013-03-09 08:28:00,47.2,34.0,30.29,North,359,2.0,4.0,60,0.00,,,0.00,338,Wunderground v.1.15,2013-03-09 13:28:00,
2013-03-09 08:33:00,47.5,34.3,30.30,NNE,25,2.0,3.0,60,0.00,,,0.00,336,Wunderground v.1.15,2013-03-09 13:33:00,
2013-03-09 08:39:00,47.8,34.2,30.30,North,352,2.0,3.0,59,0.00,,,0.00,269,Wunderground v.1.15,2013-03-09 13:39:00,
2013-03-09 08:45:00,48.0,33.9,30.31,North,1,2.0,6.0,58,0.00,,,0.00,396,Wunderground v.1.15,2013-03-09 13:45:00,
2013-03-09 08:51:00,48.4,34.7,30.31,NNE,22,2.0,3.0,59,0.00,,,0.00,415,Wunderground v.1.15,2013-03-09 13:51:00,
2013-03-09 08:56:00,48.6,34.5,30.31,North,1,2.0,3.0,58,0.00,,,0.00,431,Wunderground v.1.15,2013-03-09 13:56:00,
2013-03-09 09:02:00,48.9,34.3,30.31,NE,34,2.0,4.0,57,0.00,,,0.00,450,Wunderground v.1.15,2013-03-09 14:02:00,
2013-03-09 09:07:00,49.1,34.5,30.31,NE,54,2.0,4.0,57,0.00,,,0.00,466,Wunderground v.1.15,2013-03-09 14:07:00,
2013-03-09 09:13:00,49.3,34.3,30.31,NNE,20,2.0,3.0,56,0.00,,,0.00,485,Wunderground v.1.15,2013-03-09 14:13:00,
2013-03-09 09:18:00,49.8,35.6,30.31,NE,38,2.0,3.0,58,0.00,,,0.00,499,Wunderground v.1.15,2013-03-09 14:18:00,
2013-03-09 09:24:00,50.4,35.3,30.31,North,8,1.0,6.0,56,0.00,,,0.00,519,Wunderground v.1.15,2013-03-09 14:24:00,
2013-03-09 09:30:00,50.8,35.2,30.31,North,3,2.0,2.0,55,0.00,,,0.00,534,Wunderground v.1.15,2013-03-09 14:30:00,
2013-03-09 09:36:00,50.9,35.3,30.31,ESE,115,2.0,4.0,55,0.00,,,0.00,552,Wunderground v.1.15,2013-03-09 14:36:00,
2013-03-09 09:41:00,51.0,35.4,30.31,NNW,348,2.0,3.0,55,0.00,,,0.00,566,Wunderground v.1.15,2013-03-09 14:41:00,
2013-03-09 09:47:00,51.3,35.2,30.32,NNW,346,2.0,7.0,54,0.00,,,0.00,580,Wunderground v.1.15,2013-03-09 14:47:00,
2013-03-09 09:52:00,51.5,35.4,30.32,North,6,2.0,3.0,54,0.00,,,0.00,599,Wunderground v.1.15,2013-03-09 14:52:00,
2013-03-09 09:58:00,51.8,35.7,30.32,NNE,21,2.0,3.0,54,0.00,,,0.00,610,Wunderground v.1.15,2013-03-09 14:58:00,
2013-03-09 10:03:00,52.2,36.5,30.32,NNW,328,2.0,2.0,55,0.00,,,0.00,626,Wunderground v.1.15,2013-03-09 15:03:00,
2013-03-09 10:09:00,52.7,36.5,30.32,NE,37,1.0,2.0,54,0.00,,,0.00,628,Wunderground v.1.15,2013-03-09 15:09:00,
2013-03-09 10:14:00,53.1,36.4,30.32,NNE,12,1.0,3.0,53,0.00,,,0.00,647,Wunderground v.1.15,2013-03-09 15:14:00,
2013-03-09 10:20:00,53.7,37.4,30.32,East,87,1.0,2.0,54,0.00,,,0.00,661,Wunderground v.1.15,2013-03-09 15:20:00,
2013-03-09 10:25:00,53.9,37.1,30.32,East,86,2.0,2.0,53,0.00,,,0.00,670,Wunderground v.1.15,2013-03-09 15:25:00,
2013-03-09 10:31:00,53.9,37.1,30.32,ENE,68,2.0,4.0,53,0.00,,,0.00,679,Wunderground v.1.15,2013-03-09 15:31:00,
2013-03-09 10:37:00,53.9,37.6,30.32,North,359,2.0,4.0,54,0.00,,,0.00,693,Wunderground v.1.15,2013-03-09 15:37:00,
2013-03-09 10:43:00,54.0,37.2,30.32,NNW,346,2.0,2.0,53,0.00,,,0.00,705,Wunderground v.1.15,2013-03-09 15:43:00,
2013-03-09 10:48:00,54.8,38.0,30.32,North,352,1.0,2.0,53,0.00,,,0.00,717,Wunderground v.1.15,2013-03-09 15:48:00,
2013-03-09 10:54:00,55.2,37.9,30.32,ESE,104,1.0,2.0,52,0.00,,,0.00,726,Wunderground v.1.15,2013-03-09 15:54:00,
2013-03-09 10:59:00,55.9,38.5,30.32,NNE,32,1.0,2.0,52,0.00,,,0.00,737,Wunderground v.1.15,2013-03-09 15:59:00,
2013-03-09 11:05:00,56.1,38.2,30.33,ENE,67,1.0,2.0,51,0.00,,,0.00,742,Wunderground v.1.15,2013-03-09 16:05:00,
2013-03-09 11:10:00,55.8,37.9,30.33,ESE,120,2.0,2.0,51,0.00,,,0.00,747,Wunderground v.1.15,2013-03-09 16:10:00,
2013-03-09 11:16:00,56.2,38.3,30.33,ESE,115,2.0,3.0,51,0.00,,,0.00,758,Wunderground v.1.15,2013-03-09 16:16:00,
2013-03-09 11:22:00,56.7,39.7,30.33,East,95,1.0,2.0,53,0.00,,,0.00,765,Wunderground v.1.15,2013-03-09 16:22:00,
2013-03-09 11:28:00,56.5,40.5,30.33,ENE,71,2.0,3.0,55,0.00,,,0.00,770,Wunderground v.1.15,2013-03-09 16:28:00,
2013-03-09 11:33:00,55.6,41.0,30.33,East,86,2.0,3.0,58,0.00,,,0.00,775,Wunderground v.1.15,2013-03-09 16:33:00,
2013-03-09 11:39:00,55.2,40.7,30.33,East,83,3.0,3.0,58,0.00,,,0.00,780,Wunderground v.1.15,2013-03-09 16:39:00,
2013-03-09 11:44:00,55.0,40.9,30.33,East,84,2.0,4.0,59,0.00,,,0.00,784,Wunderground v.1.15,2013-03-09 16:44:00,
2013-03-09 11:50:00,54.6,41.0,30.32,East,90,3.0,3.0,60,0.00,,,0.00,788,Wunderground v.1.15,2013-03-09 16:50:00,
2013-03-09 11:55:00,54.5,40.9,30.32,ESE,110,3.0,4.0,60,0.00,,,0.00,789,Wunderground v.1.15,2013-03-09 16:55:00,
2013-03-09 12:01:00,54.4,41.2,30.32,ESE,117,2.0,4.0,61,0.00,,,0.00,795,Wunderground v.1.15,2013-03-09 17:01:00,
2013-03-09 12:07:00,54.7,41.5,30.32,East,92,2.0,4.0,61,0.00,,,0.00,796,Wunderground v.1.15,2013-03-09 17:07:00,
2013-03-09 12:13:00,55.1,41.9,30.32,East,86,2.0,3.0,61,0.00,,,0.00,795,Wunderground v.1.15,2013-03-09 17:13:00,
2013-03-09 12:18:00,55.4,41.7,30.32,ESE,116,2.0,4.0,60,0.00,,,0.00,802,Wunderground v.1.15,2013-03-09 17:18:00,
2013-03-09 12:24:00,55.3,41.6,30.32,ESE,120,3.0,3.0,60,0.00,,,0.00,800,Wunderground v.1.15,2013-03-09 17:24:00,
2013-03-09 12:29:00,55.0,41.8,30.32,East,99,2.0,3.0,61,0.00,,,0.00,796,Wunderground v.1.15,2013-03-09 17:29:00,
2013-03-09 12:35:00,54.9,41.3,30.32,ENE,74,2.0,2.0,60,0.00,,,0.00,796,Wunderground v.1.15,2013-03-09 17:35:00,
2013-03-09 12:40:00,54.9,41.3,30.32,SE,125,2.0,2.0,60,0.00,,,0.00,796,Wunderground v.1.15,2013-03-09 17:40:00,
2013-03-09 12:46:00,54.9,41.7,30.32,ESE,102,2.0,3.0,61,0.00,,,0.00,796,Wunderground v.1.15,2013-03-09 17:46:00,
2013-03-09 12:52:00,55.2,41.5,30.32,SE,142,2.0,2.0,60,0.00,,,0.00,791,Wunderground v.1.15,2013-03-09 17:52:00,
2013-03-09 12:58:00,55.3,41.2,30.32,East,94,2.0,3.0,59,0.00,,,0.00,789,Wunderground v.1.15,2013-03-09 17:58:00,
2013-03-09 13:03:00,55.2,41.5,30.31,East,94,2.0,2.0,60,0.00,,,0.00,788,Wunderground v.1.15,2013-03-09 18:03:00,
2013-03-09 13:09:00,55.4,42.2,30.31,East,94,1.0,3.0,61,0.00,,,0.00,784,Wunderground v.1.15,2013-03-09 18:09:00,
2013-03-09 13:15:00,55.5,41.4,30.30,SE,136,2.0,3.0,59,0.00,,,0.00,775,Wunderground v.1.15,2013-03-09 18:15:00,
2013-03-09 13:21:00,55.4,41.3,30.30,East,100,2.0,3.0,59,0.00,,,0.00,768,Wunderground v.1.15,2013-03-09 18:21:00,
2013-03-09 13:26:00,55.2,42.0,30.30,East,87,2.0,4.0,61,0.00,,,0.00,765,Wunderground v.1.15,2013-03-09 18:26:00,
2013-03-09 13:32:00,55.2,41.1,30.29,East,84,2.0,2.0,59,0.00,,,0.00,754,Wunderground v.1.15,2013-03-09 18:32:00,
2013-03-09 13:37:00,55.1,41.5,30.29,SE,133,2.0,2.0,60,0.00,,,0.00,745,Wunderground v.1.15,2013-03-09 18:37:00,
2013-03-09 13:43:00,54.9,40.8,30.29,ESE,117,2.0,4.0,59,0.00,,,0.00,737,Wunderground v.1.15,2013-03-09 18:43:00,
2013-03-09 13:48:00,54.5,41.3,30.29,East,88,2.0,4.0,61,0.00,,,0.00,728,Wunderground v.1.15,2013-03-09 18:48:00,
2013-03-09 13:54:00,54.8,41.6,30.29,SE,126,2.0,2.0,61,0.00,,,0.00,717,Wunderground v.1.15,2013-03-09 18:54:00,
2013-03-09 14:00:00,54.8,41.6,30.29,ESE,114,2.0,3.0,61,0.00,,,0.00,707,Wunderground v.1.15,2013-03-09 19:00:00,
2013-03-09 14:06:00,54.8,42.0,30.29,ESE,108,2.0,3.0,62,0.00,,,0.00,696,Wunderground v.1.15,2013-03-09 19:06:00,
2013-03-09 14:11:00,54.8,41.6,30.29,ESE,122,2.0,2.0,61,0.00,,,0.00,686,Wunderground v.1.15,2013-03-09 19:11:00,
2013-03-09 14:17:00,55.0,41.4,30.28,ESE,121,2.0,2.0,60,0.00,,,0.00,673,Wunderground v.1.15,2013-03-09 19:17:00,
2013-03-09 14:22:00,54.9,41.7,30.28,ESE,122,1.0,2.0,61,0.00,,,0.00,663,Wunderground v.1.15,2013-03-09 19:22:00,
2013-03-09 14:28:00,55.0,42.6,30.28,East,90,1.0,4.0,63,0.00,,,0.00,652,Wunderground v.1.15,2013-03-09 19:28:00,
2013-03-09 14:33:00,55.3,42.1,30.27,NE,50,1.0,3.0,61,0.00,,,0.00,642,Wunderground v.1.15,2013-03-09 19:33:00,
2013-03-09 14:39:00,55.1,42.3,30.27,East,89,2.0,3.0,62,0.00,,,0.00,624,Wunderground v.1.15,2013-03-09 19:39:00,
2013-03-09 14:44:00,55.2,42.8,30.27,ESE,117,2.0,2.0,63,0.00,,,0.00,615,Wunderground v.1.15,2013-03-09 19:44:00,
2013-03-09 14:49:00,55.3,42.1,30.27,ESE,109,1.0,3.0,61,0.00,,,0.00,603,Wunderground v.1.15,2013-03-09 19:49:00,
2013-03-09 14:55:00,55.2,42.0,30.27,ESE,109,1.0,2.0,61,0.00,,,0.00,585,Wunderground v.1.15,2013-03-09 19:55:00,
2013-03-09 15:01:00,55.4,41.7,30.26,ESE,109,1.0,2.0,60,0.00,,,0.00,570,Wunderground v.1.15,2013-03-09 20:01:00,
2013-03-09 15:06:00,55.4,42.2,30.26,East,81,1.0,2.0,61,0.00,,,0.00,559,Wunderground v.1.15,2013-03-09 20:06:00,
2013-03-09 15:11:00,55.2,42.4,30.26,East,81,1.0,2.0,62,0.00,,,0.00,545,Wunderground v.1.15,2013-03-09 20:11:00,
2013-03-09 15:17:00,55.0,42.6,30.26,ESE,104,1.0,3.0,63,0.00,,,0.00,527,Wunderground v.1.15,2013-03-09 20:17:00,
2013-03-09 15:22:00,54.9,42.5,30.26,East,86,1.0,2.0,63,0.00,,,0.00,515,Wunderground v.1.15,2013-03-09 20:22:00,
2013-03-09 15:28:00,54.8,42.9,30.26,ESE,104,1.0,2.0,64,0.00,,,0.00,497,Wunderground v.1.15,2013-03-09 20:28:00,
2013-03-09 15:33:00,54.8,42.9,30.26,ESE,104,1.0,2.0,64,0.00,,,0.00,475,Wunderground v.1.15,2013-03-09 20:33:00,
2013-03-09 15:39:00,54.6,42.3,30.26,ESE,104,1.0,2.0,63,0.00,,,0.00,462,Wunderground v.1.15,2013-03-09 20:39:00,
2013-03-09 15:44:00,54.6,42.7,30.26,ENE,73,1.0,1.0,64,0.00,,,0.00,450,Wunderground v.1.15,2013-03-09 20:44:00,
2013-03-09 15:50:00,54.8,42.4,30.26,East,95,1.0,1.0,63,0.00,,,0.00,427,Wunderground v.1.15,2013-03-09 20:50:00,
2013-03-09 15:55:00,55.0,42.6,30.26,ESE,110,1.0,2.0,63,0.00,,,0.00,418,Wunderground v.1.15,2013-03-09 20:55:00,
2013-03-09 16:01:00,55.1,42.7,30.26,East,101,1.0,1.0,63,0.00,,,0.00,401,Wunderground v.1.15,2013-03-09 21:01:00,
2013-03-09 16:07:00,55.3,42.9,30.26,East,101,1.0,1.0,63,0.00,,,0.00,374,Wunderground v.1.15,2013-03-09 21:07:00,
2013-03-09 16:13:00,55.3,42.9,30.26,South,171,1.0,3.0,63,0.00,,,0.00,367,Wunderground v.1.15,2013-03-09 21:13:00,
2013-03-09 16:18:00,55.0,43.0,30.26,SSE,162,1.0,3.0,64,0.00,,,0.00,346,Wunderground v.1.15,2013-03-09 21:18:00,
2013-03-09 16:24:00,54.9,42.9,30.26,SSE,162,1.0,3.0,64,0.00,,,0.00,329,Wunderground v.1.15,2013-03-09 21:24:00,
2013-03-09 16:30:00,55.0,43.8,30.26,SSE,162,1.0,1.0,66,0.00,,,0.00,304,Wunderground v.1.15,2013-03-09 21:30:00,
2013-03-09 16:35:00,55.0,43.8,30.26,SSE,153,1.0,1.0,66,0.00,,,0.00,287,Wunderground v.1.15,2013-03-09 21:35:00,
2013-03-09 16:40:00,54.9,43.7,30.26,SE,139,1.0,1.0,66,0.00,,,0.00,264,Wunderground v.1.15,2013-03-09 21:40:00,
2013-03-09 16:45:00,55.0,43.8,30.26,SE,137,1.0,1.0,66,0.00,,,0.00,218,Wunderground v.1.15,2013-03-09 21:45:00,
2013-03-09 16:51:00,55.1,43.5,30.26,SE,137,0.0,0.0,65,0.00,,,0.00,192,Wunderground v.1.15,2013-03-09 21:51:00,
2013-03-09 16:56:00,55.1,43.5,30.26,SE,137,0.0,0.0,65,0.00,,,0.00,178,Wunderground v.1.15,2013-03-09 21:56:00,
2013-03-09 17:02:00,54.9,43.7,30.26,SE,137,0.0,1.0,66,0.00,,,0.00,90,Wunderground v.1.15,2013-03-09 22:02:00,
2013-03-09 17:07:00,54.5,43.8,30.26,SE,137,0.0,1.0,67,0.00,,,0.00,67,Wunderground v.1.15,2013-03-09 22:07:00,
2013-03-09 17:13:00,54.2,43.5,30.26,SE,138,0.0,1.0,67,0.00,,,0.00,39,Wunderground v.1.15,2013-03-09 22:13:00,
2013-03-09 17:18:00,54.0,43.7,30.26,SE,138,0.0,1.0,68,0.00,,,0.00,37,Wunderground v.1.15,2013-03-09 22:18:00,
2013-03-09 17:24:00,53.8,43.9,30.26,SE,137,0.0,1.0,69,0.00,,,0.00,33,Wunderground v.1.15,2013-03-09 22:24:00,
2013-03-09 17:29:00,53.7,43.8,30.26,SE,138,0.0,1.0,69,0.00,,,0.00,32,Wunderground v.1.15,2013-03-09 22:29:00,
2013-03-09 17:35:00,53.5,44.0,30.26,SE,138,0.0,0.0,70,0.00,,,0.00,30,Wunderground v.1.15,2013-03-09 22:35:00,
2013-03-09 17:40:00,53.3,43.4,30.26,SE,138,0.0,0.0,69,0.00,,,0.00,30,Wunderground v.1.15,2013-03-09 22:40:00,
2013-03-09 17:46:00,53.0,43.5,30.26,SE,138,0.0,0.0,70,0.00,,,0.00,28,Wunderground v.1.15,2013-03-09 22:46:00,
2013-03-09 17:52:00,52.9,43.7,30.26,SE,138,0.0,0.0,71,0.00,,,0.00,25,Wunderground v.1.15,2013-03-09 22:52:00,
2013-03-09 17:58:00,52.7,43.9,30.26,SE,138,0.0,0.0,72,0.00,,,0.00,19,Wunderground v.1.15,2013-03-09 22:58:00,
2013-03-09 18:03:00,52.5,44.1,30.26,SE,138,0.0,0.0,73,0.00,,,0.00,14,Wunderground v.1.15,2013-03-09 23:03:00,
2013-03-09 18:09:00,52.2,43.8,30.26,SE,138,0.0,0.0,73,0.00,,,0.00,11,Wunderground v.1.15,2013-03-09 23:09:00,
2013-03-09 18:14:00,51.9,43.9,30.26,SE,138,0.0,0.0,74,0.00,,,0.00,5,Wunderground v.1.15,2013-03-09 23:14:00,
2013-03-09 18:20:00,51.6,43.6,30.26,SE,138,0.0,0.0,74,0.00,,,0.00,0,Wunderground v.1.15,2013-03-09 23:20:00,
2013-03-09 18:25:00,51.2,43.5,30.26,SE,138,0.0,0.0,75,0.00,,,0.00,0,Wunderground v.1.15,2013-03-09 23:25:00,
2013-03-09 18:31:00,50.7,43.4,30.27,SE,138,0.0,0.0,76,0.00,,,0.00,0,Wunderground v.1.15,2013-03-09 23:31:00,
2013-03-09 18:36:00,50.3,43.4,30.27,SE,138,0.0,0.0,77,0.00,,,0.00,0,Wunderground v.1.15,2013-03-09 23:36:00,
2013-03-09 18:42:00,50.0,43.4,30.27,SE,138,0.0,0.0,78,0.00,,,0.00,0,Wunderground v.1.15,2013-03-09 23:42:00,
2013-03-09 18:47:00,49.6,43.4,30.27,SE,138,0.0,0.0,79,0.00,,,0.00,0,Wunderground v.1.15,2013-03-09 23:47:00,
2013-03-09 18:52:00,49.3,43.4,30.27,SE,137,0.0,0.0,80,0.00,,,0.00,0,Wunderground v.1.15,2013-03-09 23:52:00,
2013-03-09 18:58:00,48.9,43.3,30.27,SE,138,0.0,0.0,81,0.00,,,0.00,0,Wunderground v.1.15,2013-03-09 23:58:00,
2013-03-09 19:03:00,48.5,43.3,30.27,SE,138,0.0,0.0,82,0.00,,,0.00,0,Wunderground v.1.15,2013-03-10 00:03:00,
2013-03-09 19:09:00,48.2,43.3,30.27,SE,138,0.0,0.0,83,0.00,,,0.00,0,Wunderground v.1.15,2013-03-10 00:09:00,
2013-03-09 19:15:00,47.9,43.0,30.27,SE,138,0.0,0.0,83,0.00,,,0.00,0,Wunderground v.1.15,2013-03-10 00:15:00,
2013-03-09 19:21:00,47.5,42.9,30.27,SE,138,0.0,0.0,84,0.00,,,0.00,0,Wunderground v.1.15,2013-03-10 00:21:00,
2013-03-09 19:26:00,47.3,43.0,30.27,SE,137,0.0,0.0,85,0.00,,,0.00,0,Wunderground v.1.15,2013-03-10 00:26:00,
2013-03-09 19:31:00,47.1,43.1,30.27,SE,138,0.0,0.0,86,0.00,,,0.00,0,Wunderground v.1.15,2013-03-10 00:31:00,
2013-03-09 19:37:00,46.8,42.8,30.27,SE,137,0.0,0.0,86,0.00,,,0.00,0,Wunderground v.1.15,2013-03-10 00:37:00,
2013-03-09 19:43:00,46.6,42.6,30.27,SE,138,0.0,0.0,86,0.00,,,0.00,0,Wunderground v.1.15,2013-03-10 00:43:00,
2013-03-09 19:48:00,46.4,42.7,30.27,SE,138,0.0,0.0,87,0.00,,,0.00,0,Wunderground v.1.15,2013-03-10 00:48:00,
2013-03-09 19:54:00,46.2,42.8,30.27,SE,138,0.0,0.0,88,0.00,,,0.00,0,Wunderground v.1.15,2013-03-10 00:54:00,
2013-03-09 20:00:00,46.0,42.6,30.28,SE,138,0.0,0.0,88,0.00,,,0.00,0,Wunderground v.1.15,2013-03-10 01:00:00,
2013-03-09 20:05:00,45.8,42.4,30.28,SE,138,0.0,0.0,88,0.00,,,0.00,0,Wunderground v.1.15,2013-03-10 01:05:00,
2013-03-09 20:11:00,45.7,42.6,30.28,SE,137,0.0,0.0,89,0.00,,,0.00,0,Wunderground v.1.15,2013-03-10 01:11:00,
2013-03-09 20:16:00,45.6,42.8,30.28,SE,138,0.0,0.0,90,0.00,,,0.00,0,Wunderground v.1.15,2013-03-10 01:16:00,
2013-03-09 20:22:00,45.5,42.7,30.28,SE,138,0.0,0.0,90,0.00,,,0.00,0,Wunderground v.1.15,2013-03-10 01:22:00,
2013-03-09 20:28:00,45.5,43.0,30.28,SE,137,0.0,0.0,91,0.00,,,0.00,0,Wunderground v.1.15,2013-03-10 01:28:00,
2013-03-09 20:33:00,45.5,43.0,30.29,SE,138,0.0,0.0,91,0.00,,,0.00,0,Wunderground v.1.15,2013-03-10 01:33:00,
2013-03-09 20:39:00,45.3,42.8,30.29,SE,138,0.0,0.0,91,0.00,,,0.00,0,Wunderground v.1.15,2013-03-10 01:39:00,
2013-03-09 20:45:00,45.2,42.7,30.29,SE,137,0.0,0.0,91,0.00,,,0.00,0,Wunderground v.1.15,2013-03-10 01:45:00,
2013-03-09 20:50:00,45.1,42.9,30.29,SE,138,0.0,0.0,92,0.00,,,0.00,0,Wunderground v.1.15,2013-03-10 01:50:00,
2013-03-09 20:56:00,45.1,42.9,30.29,SE,138,0.0,0.0,92,0.00,,,0.00,0,Wunderground v.1.15,2013-03-10 01:56:00,
2013-03-09 21:02:00,45.1,42.9,30.28,SE,138,0.0,0.0,92,0.00,,,0.00,0,Wunderground v.1.15,2013-03-10 02:02:00,
2013-03-09 21:07:00,44.9,42.7,30.28,SE,137,0.0,0.0,92,0.00,,,0.00,0,Wunderground v.1.15,2013-03-10 02:07:00,
2013-03-09 21:13:00,44.9,43.0,30.28,SE,138,0.0,0.0,93,0.00,,,0.00,0,Wunderground v.1.15,2013-03-10 02:13:00,
2013-03-09 21:18:00,44.8,42.9,30.28,SE,138,0.0,0.0,93,0.00,,,0.00,0,Wunderground v.1.15,2013-03-10 02:18:00,
2013-03-09 21:24:00,44.6,42.7,30.28,SE,138,0.0,0.0,93,0.00,,,0.00,0,Wunderground v.1.15,2013-03-10 02:24:00,
2013-03-09 21:30:00,44.5,42.6,30.29,SE,138,0.0,0.0,93,0.00,,,0.00,0,Wunderground v.1.15,2013-03-10 02:30:00,
2013-03-09 21:36:00,44.3,42.4,30.29,SE,137,0.0,0.0,93,0.00,,,0.00,0,Wunderground v.1.15,2013-03-10 02:36:00,
2013-03-09 21:41:00,44.4,42.8,30.29,SE,137,0.0,0.0,94,0.00,,,0.00,0,Wunderground v.1.15,2013-03-10 02:41:00,
2013-03-09 21:47:00,44.3,42.7,30.29,SE,137,0.0,0.0,94,0.00,,,0.00,0,Wunderground v.1.15,2013-03-10 02:47:00,
2013-03-09 21:52:00,44.2,42.6,30.29,SE,138,0.0,0.0,94,0.00,,,0.00,0,Wunderground v.1.15,2013-03-10 02:52:00,
2013-03-09 21:58:00,44.1,42.5,30.29,SE,138,0.0,0.0,94,0.00,,,0.00,0,Wunderground v.1.15,2013-03-10 02:58:00,
2013-03-09 22:03:00,44.0,42.4,30.29,SE,138,0.0,0.0,94,0.00,,,0.00,0,Wunderground v.1.15,2013-03-10 03:03:00,
2013-03-09 22:09:00,43.9,42.3,30.29,SE,138,0.0,0.0,94,0.00,,,0.00,0,Wunderground v.1.15,2013-03-10 03:09:00,
2013-03-09 22:14:00,43.9,42.3,30.29,SE,137,0.0,0.0,94,0.00,,,0.00,0,Wunderground v.1.15,2013-03-10 03:14:00,
2013-03-09 22:20:00,43.8,42.2,30.29,SE,138,0.0,0.0,94,0.00,,,0.00,0,Wunderground v.1.15,2013-03-10 03:20:00,
2013-03-09 22:25:00,43.7,42.1,30.29,SE,137,0.0,0.0,94,0.00,,,0.00,0,Wunderground v.1.15,2013-03-10 03:25:00,
2013-03-09 22:31:00,43.7,42.4,30.29,SE,137,0.0,0.0,95,0.00,,,0.00,0,Wunderground v.1.15,2013-03-10 03:31:00,
2013-03-09 22:36:00,43.7,42.4,30.29,SE,137,0.0,0.0,95,0.00,,,0.00,0,Wunderground v.1.15,2013-03-10 03:36:00,
2013-03-09 22:42:00,43.7,42.4,30.29,SE,138,0.0,0.0,95,0.00,,,0.00,0,Wunderground v.1.15,2013-03-10 03:42:00,
2013-03-09 22:47:00,43.6,42.3,30.29,SE,138,0.0,0.0,95,0.00,,,0.00,0,Wunderground v.1.15,2013-03-10 03:47:00,
2013-03-09 22:52:00,43.6,42.3,30.29,SE,138,0.0,0.0,95,0.00,,,0.00,0,Wunderground v.1.15,2013-03-10 03:52:00,
2013-03-09 22:58:00,43.6,42.3,30.29,SE,138,0.0,0.0,95,0.00,,,0.00,0,Wunderground v.1.15,2013-03-10 03:58:00,
2013-03-09 23:03:00,43.7,42.4,30.29,SE,137,0.0,0.0,95,0.00,,,0.00,0,Wunderground v.1.15,2013-03-10 04:03:00,
2013-03-09 23:09:00,43.7,42.4,30.29,SE,137,0.0,0.0,95,0.00,,,0.00,0,Wunderground v.1.15,2013-03-10 04:09:00,
2013-03-09 23:15:00,43.7,42.4,30.28,SE,137,0.0,0.0,95,0.00,,,0.00,0,Wunderground v.1.15,2013-03-10 04:15:00,
2013-03-09 23:21:00,43.7,42.4,30.28,SE,138,0.0,0.0,95,0.00,,,0.00,0,Wunderground v.1.15,2013-03-10 04:21:00,
2013-03-09 23:26:00,43.6,42.3,30.28,SE,138,0.0,0.0,95,0.00,,,0.00,0,Wunderground v.1.15,2013-03-10 04:26:00,
2013-03-09 23:32:00,43.5,42.2,30.27,SE,137,0.0,0.0,95,0.00,,,0.00,0,Wunderground v.1.15,2013-03-10 04:32:00,
2013-03-09 23:37:00,43.4,42.1,30.27,SE,138,0.0,0.0,95,0.00,,,0.00,0,Wunderground v.1.15,2013-03-10 04:37:00,
2013-03-09 23:43:00,43.3,42.0,30.27,SE,137,0.0,0.0,95,0.00,,,0.00,0,Wunderground v.1.15,2013-03-10 04:43:00,
2013-03-09 23:48:00,43.1,41.8,30.27,SE,137,0.0,0.0,95,0.00,,,0.00,0,Wunderground v.1.15,2013-03-10 04:48:00,
2013-03-09 23:54:00,43.0,41.7,30.27,SE,138,0.0,0.0,95,0.00,,,0.00,0,Wunderground v.1.15,2013-03-10 04:54:00,
2013-03-09 23:59:00,42.9,41.6,30.27,SE,137,0.0,0.0,95,0.00,,,0.00,0,Wunderground v.1.15,2013-03-10 04:59:00,